Location: Brivio
(45.7333°N, 9.4500°E)
Time: 19:53:52
(UTC+00:00)

Cosmos 1242 Rocket - Pass Details

Date: 18 October 2019
Orbit: 449 x 488 km, 81.2° (Epoch: 17 November)

Event Time Altitude Azimuth Distance (km) Brightness Sun altitude
Rises 17:58:24 0° 342° (NNW) 2,573 6.5 -15.8°
Reaches altitude 10° 18:00:36 10° 334° (NNW) 1,687 5.7 -16.2°
Maximum altitude 18:04:04 39° 265° (W) 752 4.1 -16.8°
Drops below altitude 10° 18:07:29 10° 196° (SSW) 1,667 5.4 -17.4°
Sets 18:09:39 0° 188° (S) 2,538 6.3 -17.8°
